Location: Unspecified
(0.0000°N, 0.0000°E)
Time: 19:09:50
(UTC+00:00)

Vanguard 2 - Pass Details

Date: 20 November 2019
Orbit: 553 x 2938 km, 32.9° (Epoch: 06 December)

Event Time Altitude Azimuth Distance (km) Brightness Sun altitude
Rises 21:47:06 0° 217° (SW) 4,912 12.2 -54.9°
Reaches altitude 10° 21:56:03 10° 177° (S) 4,732 11.7 -56.7°
Maximum altitude 21:57:25 10° 171° (S) 4,822 11.7 -56.9°
Drops below altitude 10° 21:58:50 10° 165° (SSE) 4,942 11.7 -57.2°
Sets 22:10:48 0° 128° (SE) 6,603 12.2 -59.5°
